Retour au catalogue

COSMOS 2520

ActifNavigationGEO
NORAD 42907·PAYLOAD·🇷🇺 Russia

Lancé Aug 16, 2017 depuis Baikonur Cosmodrome

Loading…

TLE

FraisSource: Space-Track

Époque: Sep 14, 2026, 14:00 UTC

1 42907U 17046A   26257.58402772  .00000129  00000-0  00000-0 0  9999
2 42907   0.0254 120.4615 0000084  76.6873  51.6722  1.00273612 33295

Suivez COSMOS 2520 en temps réel avec AllMySat

Download on the App Store